Location: Beccas
(43.4309°N, 0.1528°E)
Time: 21:27:18
(UTC+00:00)

Cosmos 1727 Rocket - Pass Details

Date: 15 October 2021
Orbit: 960 x 997 km, 82.9° (Epoch: 29 November)

Event Time Altitude Azimuth Distance (km) Brightness Sun altitude
Rises 17:46:09 0° 355° (N) 3,686 7.0 -6.2°
Reaches altitude 10° 17:48:44 10° 360° (N) 2,729 6.3 -6.7°
Maximum altitude 17:54:52 56° 78° (ENE) 1,139 4.1 -7.8°
Drops below altitude 10° 18:00:54 10° 156° (SSE) 2,691 6.1 -8.9°
Sets 18:03:27 0° 161° (SSE) 3,631 6.8 -9.4°
